CZ-4 DEB

基本信息
目录编号:
26436
目录名称:
CZ-4 DEB
国际标识:
1999-057KH
轨道中心:
EARTH
物体状态:
在轨
发射日期:
1999-10-14 UTC
轨道信息
数据来源: 国际轨道数据
星历时间: 2026-09-13T23:32:13+0800
半长轴: 7646.998km
偏心率: 0.0704266
轨道倾角: 99.512°
近地点辐角: 35.166°
升交点赤经: 319.532°
平近点角: 329.390°
近地点: 730.308km
远地点: 1807.414km
周期: 110.917分钟
每日圈数: 12.982739
详细信息
发射场:
TSC
轨道高度:
LEO
数据来源:
AOE Integration Group
参考系:
TEME
时间系统:
UTC
历元类型:
SGP4
2D轨道图
3D轨道图
轨道高度分析图
轨道倾角分析图
轨道综合分析图
查看轨道综合分析图